[[{"header":{"parameterUnit":"m.s-1","parameterCategory":1,"la1":30.2991,"la2":30.254,"lo1":-89.0895,"lo2":-89.0444,"dy":0.0017,"dx":0.0017,"nx":28,"ny":28,"refTime":"2023-11-13T03:00:00:Z","depth":0,"parameterNumber":2,"parameterNumberName":"U-component_of_WINDS"},"data":[0,0,0,0,0,0,0,0,0,0,0,0,0,0,0,0,0,0,0,0,0,0,0,0,0,0,0,0,0,0,0,0,0,0,0,0,0,0,0,0,0,0,0,0,0,0,0,0,0,0,0,0,0,0,0,0,0,0,-2.0392,-2.0391,0,-2.0366,-2.0366,-2.0366,-2.0297,-2.0295,-2.0294,-2.0293,-2.0269,-2.0269,-2.027,0,0,0,0,0,0,0,0,0,0,0,0,0,-2.0382,-2.0383,-2.0392,-2.0391,-2.0391,-2.0366,-2.0366,-2.0366,-2.0297,-2.0295,-2.0294,-2.0292,-2.0268,-2.0269,-2.027,0,0,0,0,0,0,0,0,0,0,0,0,0,-2.0375,-2.0383,-2.0392,-2.0354,-2.035,-2.0366,-2.0366,-2.0366,-2.0298,-2.0295,-2.0293,-2.0291,-2.0268,-2.0269,-2.027,-2.0322,0,0,-2.0274,-2.0274,0,0,0,0,0,0,0,0,-2.0375,-2.0375,-2.036,-2.0357,-2.0352,-2.0332,-2.0354,-2.0351,-2.0298,-2.0318,-2.0293,-2.029,-2.0292,-2.0291,-2.0291,-2.0321,-2.032,-2.0274,-2.0274,-2.0275,-2.0275,0,0,0,0,0,0,0,-2.0376,-2.0376,-2.0382,-2.036,-2.0355,-2.0339,-2.0335,-2.0353,-2.0318,-2.0316,-2.0311,-2.0309,-2.0289,-2.029,-2.029,-2.0319,-2.0274,-2.0275,-2.0275,-2.0276,-2.0389,-2.0391,0,0,0,0,0,0,-2.0382,-2.0377,-2.0383,-2.0381,-2.0359,-2.0341,-2.0337,-2.0341,-2.0317,-2.0311,-2.031,-2.0305,-2.0289,-2.0289,-2.0289,-2.0347,-2.0275,-2.0276,-2.0277,-2.0387,-2.0389,-2.0392,0,0,0,0,0,0,-2.0382,-2.0383,-2.0384,-2.0377,-2.0376,-2.0343,-2.0349,-2.0342,-2.0342,-2.0313,-2.0307,-2.0318,-2.0287,-2.0287,-2.0314,-2.0345,-2.0276,-2.0277,-2.0384,-2.0388,-2.0391,-2.0465,0,0,0,0,0,0,-2.0382,-2.0383,-2.0402,-2.0378,-2.0377,-2.0409,-2.0351,-2.0343,-2.0344,-2.0338,-2.0318,-2.0313,-2.0286,-2.0312,-2.0315,-2.0346,-2.0278,-2.0381,-2.0385,-2.039,-2.0459,-2.047,-2.048,0,0,0,0,0,-2.0382,-2.0425,-2.0404,-2.0405,-2.04,-2.0411,-2.041,-2.0377,-2.0347,-2.0366,-2.0347,-2.0313,-2.0341,-2.0316,-2.0318,-2.035,-2.0379,-2.0384,-2.0389,-2.0455,-2.0468,-2.0479,0,0,0,0,0,0,-2.0454,-2.0421,-2.0397,-2.0434,-2.0425,-2.0399,-2.0422,-2.0393,-2.0393,-2.0387,-2.0347,-2.0343,-2.0375,-2.0365,-2.0337,-2.0398,-2.0354,-2.036,-2.0403,-2.0416,-2.0426,-2.0428,-2.0279,0,0,0,0,0,-2.0474,-2.0485,-2.0456,-2.0491,-2.0488,-2.0456,-2.0459,-2.0435,-2.0425,-2.0422,-2.0404,-2.0397,-2.0403,-2.0409,-2.0414,-2.0457,-2.0452,-2.048,-2.049,-2.0498,-2.0504,-2.0526,-2.0538,-2.0409,-2.0409,-2.0409,0,0,-2.0516,-2.0499,-2.0509,-2.0505,-2.0496,-2.0509,-2.0454,-2.047,-2.0479,-2.0424,-2.0448,-2.0435,-2.0424,-2.0459,-2.0473,-2.0451,-2.0539,-2.0505,-2.0512,-2.0513,-2.0533,-2.0545,-2.0556,-2.0413,-2.0412,-2.0412,0,0,-2.0599,-2.0588,-2.0615,-2.0607,-2.0593,-2.0571,-2.0578,-2.0556,-2.0545,-2.0568,-2.0527,-2.0537,-2.055,-2.0544,-2.0542,-2.0622,-2.0591,-2.0624,-2.0678,-2.0699,-2.071,-2.0718,-2.0747,-2.0757,-2.063,-2.063,-2.063,0,-2.0653,-2.067,-2.0633,-2.0652,-2.0651,-2.0601,-2.0629,-2.0623,-2.0612,-2.0613,-2.0588,-2.0602,-2.0591,-2.0624,-2.0643,-2.0643,-2.065,-2.0627,-2.0711,-2.0719,-2.0727,-2.0754,-2.0764,-2.0634,-2.0634,-2.0633,-2.0633,0,-2.0738,-2.075,-2.0774,-2.0764,-2.0766,-2.0789,-2.0756,-2.0762,-2.0737,-2.0718,-2.0742,-2.0727,-2.0727,-2.0733,-2.0709,-2.0762,-2.0749,-2.0718,-2.0674,-2.0744,-2.0768,-2.0778,-2.064,-2.0639,-2.0638,-2.0637,0,0,-2.0867,-2.0834,-2.0844,-2.0838,-2.0819,-2.0828,-2.0849,-2.0848,-2.0855,-2.0849,-2.0865,-2.0877,-2.0848,-2.0846,-2.0821,-2.084,-2.0903,-2.0806,-2.0805,-2.0825,-2.0961,-2.0984,-2.0997,-2.0882,-2.0884,-2.0886,-2.0962,0,-2.0945,-2.0978,-2.0945,-2.0985,-2.0996,-2.0948,-2.0966,-2.0956,-2.0939,-2.0946,-2.0926,-2.0935,-2.0896,-2.0895,-2.0911,-2.0892,-2.093,-2.0886,-2.0898,-2.0899,-2.0903,-2.1009,-2.1035,-2.1107,-2.0971,-2.0973,-2.0974,0,-2.1041,-2.1038,-2.1079,-2.1056,-2.106,-2.1076,-2.1073,-2.108,-2.1068,-2.1054,-2.1052,-2.1021,-2.104,-2.0996,-2.1022,-2.0992,-2.0995,-2.0986,-2.0988,-2.0989,-2.0941,-2.1013,-2.1129,-2.1141,-2.0988,-2.0987,-2.0986,0,-2.1131,-2.1138,-2.1163,-2.1159,-2.1133,-2.1146,-2.1136,-2.1122,-2.1124,-2.1121,-2.1121,-2.1121,-2.1121,-2.1122,-2.1092,-2.1063,-2.1121,-2.1075,-2.111,-2.1111,-2.1125,-2.1125,-2.1244,-2.1127,-2.1127,-2.1126,-2.1126,0,-2.1222,-2.1249,-2.1203,-2.1218,-2.1247,-2.1208,-2.1238,-2.1223,-2.121,-2.1222,-2.1181,-2.1193,-2.1152,-2.116,-2.1137,-2.1162,-2.1162,-2.1151,-2.1145,-2.1155,-2.1157,-2.1157,-2.1151,-2.1129,-2.1128,-2.1128,-2.1127,0,-2.1328,-2.1298,-2.1322,-2.1295,-2.1289,-2.1311,-2.1288,-2.1302,-2.1281,-2.1297,-2.1298,-2.1266,-2.1273,-2.1243,-2.1245,-2.1229,-2.1266,-2.1251,-2.127,-2.1266,-2.1303,-2.13,-2.1427,-2.1441,-2.1314,-2.1316,-2.1317,0,-2.1389,-2.1408,-2.1383,-2.1387,-2.1379,-2.1387,-2.1388,-2.1351,-2.1354,-2.1341,-2.1356,-2.136,-2.1361,-2.1374,-2.1351,-2.1353,-2.1338,-2.1382,-2.1338,-2.1347,-2.1338,-2.1338,-2.1339,-2.1391,-2.1393,-2.1394,-2.1395,0,-2.1499,-2.1483,-2.1486,-2.1483,-2.1486,-2.1482,-2.1476,-2.1482,-2.1442,-2.1447,-2.1454,-2.1454,-2.1456,-2.146,-2.1456,-2.1446,-2.1414,-2.1409,-2.1417,-2.1429,-2.1439,-2.1434,-2.1296,-2.1407,-2.1406,-2.1405,-2.1404,-2.1404,-2.1584,-2.1599,-2.1583,-2.1587,-2.1579,-2.1574,-2.1584,-2.1565,-2.1569,-2.1567,-2.1545,-2.1555,-2.1542,-2.1534,-2.1527,-2.1534,-2.1514,-2.1526,-2.1529,-2.1532,-2.1539,-2.1437,-2.1534,-2.1533,-2.1533,-2.1533,-2.1532,0,-2.1692,-2.168,-2.1684,-2.1676,-2.1679,-2.1648,-2.1639,-2.1645,-2.1654,-2.1644,-2.1645,-2.1652,-2.1656,-2.1633,-2.1633,-2.1644,-2.1629,-2.1645,-2.1644,-2.1643,-2.1557,-2.155,-2.1657,-2.1657,-2.1657,-2.1657,-2.1657,-2.1657,-2.1749,-2.1772,-2.1754,-2.1773,-2.1759,-2.1769,-2.1767,-2.1762,-2.1753,-2.1763,-2.1765,-2.175,-2.1735,-2.1733,-2.1735,-2.1728,-2.173,-2.1752,-2.174,-2.1661,-2.1649,-2.1637,-2.163,-2.1752,-2.1752,-2.1824,-2.1825,-2.1826]},{"header":{"parameterUnit":"m.s-1","parameterCategory":1,"la1":30.2991,"la2":30.254,"lo1":-89.0895,"lo2":-89.0444,"dy":0.0017,"dx":0.0017,"nx":28,"ny":28,"refTime":"2023-11-13T03:00:00:Z","depth":0,"parameterNumber":3,"parameterNumberName":"V-component_of_WINDS"},"data":[0,0,0,0,0,0,0,0,0,0,0,0,0,0,0,0,0,0,0,0,0,0,0,0,0,0,0,0,0,0,0,0,0,0,0,0,0,0,0,0,0,0,0,0,0,0,0,0,0,0,0,0,0,0,0,0,0,0,-5.4071,-5.4072,0,-5.4097,-5.4098,-5.4098,-5.4007,-5.4004,-5.4002,-5.3999,-5.4023,-5.4026,-5.403,0,0,0,0,0,0,0,0,0,0,0,0,0,-5.3941,-5.3944,-5.4071,-5.4072,-5.4072,-5.4097,-5.4098,-5.4098,-5.4008,-5.4004,-5.4001,-5.3998,-5.4022,-5.4026,-5.403,0,0,0,0,0,0,0,0,0,0,0,0,0,-5.3985,-5.3945,-5.4071,-5.403,-5.4027,-5.4097,-5.4098,-5.4098,-5.4008,-5.4004,-5.4,-5.3996,-5.4021,-5.4026,-5.403,-5.4141,0,0,-5.4045,-5.4047,0,0,0,0,0,0,0,0,-5.3983,-5.399,-5.4036,-5.4033,-5.4029,-5.4045,-5.406,-5.4112,-5.4009,-5.4015,-5.3999,-5.3994,-5.4034,-5.4037,-5.4051,-5.4142,-5.4143,-5.4045,-5.4048,-5.405,-5.4052,0,0,0,0,0,0,0,-5.398,-5.3988,-5.4081,-5.4037,-5.4033,-5.4009,-5.4011,-5.407,-5.4047,-5.4014,-5.4008,-5.4012,-5.4031,-5.4047,-5.4051,-5.4144,-5.4045,-5.4049,-5.4052,-5.4054,-5.4327,-5.4331,0,0,0,0,0,0,-5.3983,-5.3987,-5.4081,-5.4082,-5.3996,-5.4015,-5.4017,-5.4044,-5.4046,-5.4042,-5.4016,-5.4008,-5.404,-5.4045,-5.4051,-5.4181,-5.405,-5.4055,-5.4057,-5.4322,-5.4328,-5.4332,0,0,0,0,0,0,-5.398,-5.3992,-5.408,-5.4033,-5.4042,-5.4022,-5.4053,-5.4047,-5.4062,-5.4047,-5.4042,-5.4036,-5.4037,-5.4045,-5.412,-5.418,-5.4057,-5.4061,-5.4317,-5.4324,-5.433,-5.4441,0,0,0,0,0,0,-5.3977,-5.3992,-5.4034,-5.4034,-5.4045,-5.4149,-5.4056,-5.405,-5.4071,-5.4061,-5.4065,-5.4061,-5.4035,-5.4113,-5.4124,-5.4185,-5.4065,-5.4312,-5.432,-5.4328,-5.4432,-5.4451,-5.4467,0,0,0,0,0,-5.3972,-5.4064,-5.4037,-5.4049,-5.4098,-5.4152,-5.4158,-5.4126,-5.4076,-5.4118,-5.4108,-5.4061,-5.4172,-5.4121,-5.4133,-5.4196,-5.4308,-5.4318,-5.4327,-5.4424,-5.4447,-5.4466,0,0,0,0,0,0,-5.407,-5.4063,-5.4033,-5.4127,-5.4141,-5.4137,-5.4189,-5.4152,-5.4179,-5.4169,-5.4127,-5.4129,-5.4211,-5.4211,-5.4155,-5.4303,-5.4231,-5.4244,-5.43,-5.4322,-5.4339,-5.4337,-5.4069,0,0,0,0,0,-5.4103,-5.4149,-5.414,-5.4224,-5.4232,-5.421,-5.4232,-5.4207,-5.4219,-5.4224,-5.422,-5.4233,-5.4271,-5.4296,-5.433,-5.4431,-5.4431,-5.448,-5.4498,-5.4512,-5.4524,-5.4577,-5.4599,-5.4365,-5.4365,-5.4365,0,0,-5.4171,-5.4172,-5.4204,-5.4243,-5.4251,-5.4299,-5.4215,-5.4269,-5.4304,-5.4232,-5.4303,-5.43,-5.4312,-5.4401,-5.444,-5.4403,-5.4588,-5.4525,-5.4536,-5.454,-5.4589,-5.4611,-5.4631,-5.4372,-5.437,-5.4369,0,0,-5.4318,-5.4325,-5.4395,-5.4405,-5.4418,-5.4403,-5.442,-5.4421,-5.4417,-5.4488,-5.4435,-5.4475,-5.4541,-5.4551,-5.4565,-5.4717,-5.4675,-5.4729,-5.482,-5.4872,-5.4891,-5.4907,-5.4961,-5.4981,-5.4741,-5.4741,-5.4741,0,-5.4401,-5.4471,-5.4436,-5.4494,-5.4512,-5.4451,-5.4521,-5.4532,-5.4556,-5.457,-5.4528,-5.461,-5.4613,-5.4703,-5.4741,-5.4754,-5.4772,-5.4729,-5.4891,-5.4907,-5.4921,-5.4972,-5.4993,-5.4748,-5.4747,-5.4746,-5.4746,0,-5.4571,-5.4621,-5.4676,-5.4701,-5.4726,-5.479,-5.4764,-5.4793,-5.4766,-5.4754,-5.4826,-5.4829,-5.4862,-5.4881,-5.4854,-5.4968,-5.4945,-5.4898,-5.4825,-5.4951,-5.4998,-5.5017,-5.4757,-5.4755,-5.4753,-5.4751,0,0,-5.4781,-5.4786,-5.4807,-5.4818,-5.4828,-5.4865,-5.4926,-5.4959,-5.4985,-5.5003,-5.5052,-5.5109,-5.5066,-5.5082,-5.5056,-5.5102,-5.5222,-5.505,-5.5049,-5.5081,-5.5347,-5.5381,-5.5405,-5.5194,-5.5198,-5.52,-5.5345,0,-5.4926,-5.5031,-5.5001,-5.5106,-5.5151,-5.5093,-5.5146,-5.5158,-5.5149,-5.5185,-5.5174,-5.5215,-5.5156,-5.5165,-5.5208,-5.5199,-5.5275,-5.5188,-5.5239,-5.5241,-5.5238,-5.5429,-5.5466,-5.5603,-5.5364,-5.5367,-5.5369,0,-5.5109,-5.5135,-5.5245,-5.5247,-5.5265,-5.5313,-5.5341,-5.5377,-5.5388,-5.5378,-5.5397,-5.5361,-5.542,-5.5347,-5.5427,-5.5368,-5.5388,-5.5386,-5.5391,-5.5394,-5.5313,-5.5437,-5.5646,-5.5666,-5.5398,-5.5395,-5.5393,0,-5.525,-5.5313,-5.5387,-5.5398,-5.5403,-5.5438,-5.5441,-5.5449,-5.5471,-5.5495,-5.5508,-5.5539,-5.5556,-5.558,-5.5553,-5.5502,-5.5637,-5.5562,-5.563,-5.5631,-5.5661,-5.5659,-5.5875,-5.5674,-5.5674,-5.5673,-5.5673,0,-5.5415,-5.5484,-5.5451,-5.5496,-5.5572,-5.5537,-5.5612,-5.5609,-5.5616,-5.5659,-5.5611,-5.5652,-5.5614,-5.5652,-5.5631,-5.57,-5.5708,-5.5701,-5.5695,-5.5706,-5.5707,-5.5717,-5.5707,-5.5679,-5.5677,-5.5676,-5.5675,0,-5.5586,-5.5566,-5.5643,-5.5641,-5.5643,-5.5699,-5.5697,-5.5738,-5.5726,-5.5781,-5.5791,-5.5772,-5.5814,-5.5789,-5.5832,-5.5818,-5.5908,-5.5889,-5.5905,-5.5899,-5.5969,-5.5963,-5.6199,-5.6228,-5.6009,-5.6011,-5.6013,0,-5.5692,-5.5744,-5.5749,-5.5775,-5.5782,-5.5824,-5.5846,-5.5814,-5.5839,-5.5856,-5.5895,-5.5933,-5.5961,-5.603,-5.6019,-5.6051,-5.6032,-5.6113,-5.6037,-5.6046,-5.6033,-5.603,-5.6035,-5.6128,-5.6131,-5.6133,-5.6135,0,-5.5883,-5.5871,-5.5905,-5.5937,-5.5965,-5.5988,-5.6006,-5.603,-5.5997,-5.6028,-5.607,-5.6093,-5.6136,-5.6174,-5.6201,-5.6204,-5.6164,-5.6159,-5.6176,-5.6187,-5.6194,-5.6191,-5.5946,-5.6153,-5.6151,-5.615,-5.6149,-5.6148,-5.6025,-5.6068,-5.6078,-5.6118,-5.6129,-5.6148,-5.6187,-5.6179,-5.6215,-5.6248,-5.6227,-5.6277,-5.6286,-5.6319,-5.6327,-5.6365,-5.6332,-5.6357,-5.6364,-5.637,-5.638,-5.6189,-5.6369,-5.6369,-5.6368,-5.6368,-5.6367,0,-5.6212,-5.6216,-5.6254,-5.6282,-5.6313,-5.6274,-5.6292,-5.6321,-5.6366,-5.6379,-5.6408,-5.6457,-5.6493,-5.6485,-5.6518,-5.655,-5.6532,-5.656,-5.6557,-5.6558,-5.6407,-5.6389,-5.6573,-5.6573,-5.6573,-5.6573,-5.6573,-5.6573,-5.6314,-5.6386,-5.6375,-5.6451,-5.6453,-5.6503,-5.6517,-5.6534,-5.6544,-5.6601,-5.6631,-5.6626,-5.663,-5.6663,-5.6695,-5.6691,-5.6705,-5.6739,-5.6729,-5.6589,-5.6568,-5.6549,-5.6531,-5.6743,-5.6743,-5.6876,-5.6878,-5.6879]}]]